Time,TemperatureF,DewpointF,PressureIn,WindDirection,WindDirectionDegrees,WindSpeedMPH,WindSpeedGustMPH,Humidity,HourlyPrecipIn,Conditions,Clouds,dailyrainin,SoftwareType,DateUTC
2013-04-20 00:01:00,52.2,37.4,29.75,West,278,8.0,10.0,57,0.00,,,0.18,Wunderground v.1.15,2013-04-20 04:01:00,
2013-04-20 00:02:00,52.2,37.4,29.76,WSW,256,8.0,15.0,57,0.00,,,0.18,Wunderground v.1.15,2013-04-20 04:02:00,
2013-04-20 00:03:00,52.1,37.3,29.76,West,259,8.0,15.0,57,0.00,,,0.18,Wunderground v.1.15,2013-04-20 04:03:00,
2013-04-20 00:05:00,52.0,37.7,29.76,West,276,8.0,15.0,58,0.00,,,0.00,Wunderground v.1.15,2013-04-20 04:05:00,
2013-04-20 00:11:00,51.5,37.6,29.76,West,274,7.0,7.0,59,0.00,,,0.00,Wunderground v.1.15,2013-04-20 04:11:00,
2013-04-20 00:12:00,51.4,37.5,29.75,West,274,7.0,9.0,59,0.00,,,0.00,Wunderground v.1.15,2013-04-20 04:12:00,
2013-04-20 00:17:00,51.1,37.7,29.75,NW,317,6.0,9.0,60,0.00,,,0.00,Wunderground v.1.15,2013-04-20 04:17:00,
2013-04-20 00:23:00,50.7,36.9,29.76,West,261,6.0,8.0,59,0.00,,,0.00,Wunderground v.1.15,2013-04-20 04:23:00,
2013-04-20 00:28:00,50.5,36.7,29.76,WSW,245,6.0,10.0,59,0.00,,,0.00,Wunderground v.1.15,2013-04-20 04:28:00,
2013-04-20 00:34:00,50.3,36.9,29.76,WSW,242,6.0,7.0,60,0.00,,,0.00,Wunderground v.1.15,2013-04-20 04:34:00,
2013-04-20 00:39:00,50.0,36.7,29.77,NNW,334,6.0,7.0,60,0.00,,,0.00,Wunderground v.1.15,2013-04-20 04:39:00,
2013-04-20 00:45:00,49.8,36.0,29.77,West,264,6.0,8.0,59,0.00,,,0.00,Wunderground v.1.15,2013-04-20 04:45:00,
2013-04-20 00:51:00,49.6,36.3,29.78,West,260,6.0,15.0,60,0.00,,,0.00,Wunderground v.1.15,2013-04-20 04:51:00,
2013-04-20 00:56:00,49.4,36.5,29.78,West,277,6.0,15.0,61,0.00,,,0.00,Wunderground v.1.15,2013-04-20 04:56:00,
2013-04-20 01:02:00,49.1,36.6,29.78,NW,312,4.0,6.0,62,0.00,,,0.00,Wunderground v.1.15,2013-04-20 05:02:00,
2013-04-20 01:07:00,48.8,36.4,29.78,NW,310,3.0,15.0,62,0.00,,,0.00,Wunderground v.1.15,2013-04-20 05:07:00,
2013-04-20 01:13:00,48.6,37.0,29.79,WNW,293,3.0,15.0,64,0.00,,,0.00,Wunderground v.1.15,2013-04-20 05:13:00,
2013-04-20 01:18:00,48.3,36.7,29.79,NW,305,3.0,15.0,64,0.00,,,0.00,Wunderground v.1.15,2013-04-20 05:18:00,
2013-04-20 01:24:00,48.2,36.6,29.79,WNW,283,4.0,15.0,64,0.00,,,0.00,Wunderground v.1.15,2013-04-20 05:24:00,
2013-04-20 01:29:00,48.0,36.4,29.80,WNW,283,4.0,15.0,64,0.00,,,0.00,Wunderground v.1.15,2013-04-20 05:29:00,
2013-04-20 01:35:00,48.0,36.0,29.80,WNW,302,3.0,15.0,63,0.00,,,0.00,Wunderground v.1.15,2013-04-20 05:35:00,
2013-04-20 01:40:00,47.9,36.3,29.80,WNW,291,2.0,2.0,64,0.00,,,0.00,Wunderground v.1.15,2013-04-20 05:40:00,
2013-04-20 01:46:00,47.7,36.1,29.80,WNW,301,1.0,15.0,64,0.00,,,0.00,Wunderground v.1.15,2013-04-20 05:46:00,
2013-04-20 01:51:00,47.5,36.3,29.80,WNW,301,1.0,15.0,65,0.00,,,0.00,Wunderground v.1.15,2013-04-20 05:51:00,
2013-04-20 01:57:00,47.3,36.5,29.81,WNW,301,0.0,15.0,66,0.00,,,0.00,Wunderground v.1.15,2013-04-20 05:57:00,
2013-04-20 02:03:00,47.3,36.1,29.81,West,274,2.0,15.0,65,0.00,,,0.00,Wunderground v.1.15,2013-04-20 06:03:00,
2013-04-20 02:09:00,47.5,36.3,29.81,NW,315,4.0,15.0,65,0.00,,,0.01,Wunderground v.1.15,2013-04-20 06:09:00,
2013-04-20 02:14:00,47.4,36.2,29.81,WNW,294,3.0,15.0,65,0.00,,,0.01,Wunderground v.1.15,2013-04-20 06:14:00,
2013-04-20 02:20:00,47.3,36.5,29.81,WNW,293,2.0,2.0,66,0.00,,,0.01,Wunderground v.1.15,2013-04-20 06:20:00,
2013-04-20 02:25:00,47.2,36.0,29.81,NW,312,2.0,15.0,65,0.00,,,0.01,Wunderground v.1.15,2013-04-20 06:25:00,
2013-04-20 02:30:00,47.2,36.8,29.81,NW,312,2.0,2.0,67,0.00,,,0.01,Wunderground v.1.15,2013-04-20 06:30:00,
2013-04-20 02:36:00,47.2,36.4,29.82,NW,313,3.0,15.0,66,0.00,,,0.01,Wunderground v.1.15,2013-04-20 06:36:00,
2013-04-20 02:41:00,47.4,36.2,29.82,WNW,301,5.0,15.0,65,0.00,,,0.01,Wunderground v.1.15,2013-04-20 06:41:00,
2013-04-20 02:47:00,47.6,34.8,29.82,NW,308,6.0,15.0,61,0.00,,,0.01,Wunderground v.1.15,2013-04-20 06:47:00,
2013-04-20 02:52:00,47.6,34.4,29.83,WNW,283,8.0,15.0,60,0.00,,,0.01,Wunderground v.1.15,2013-04-20 06:52:00,
2013-04-20 02:58:00,47.4,34.2,29.83,NW,312,6.0,15.0,60,0.00,,,0.01,Wunderground v.1.15,2013-04-20 06:58:00,
2013-04-20 03:03:00,47.2,34.0,29.83,NNW,334,6.0,15.0,60,0.00,,,0.01,Wunderground v.1.15,2013-04-20 07:03:00,
2013-04-20 03:09:00,47.0,34.2,29.83,West,269,6.0,15.0,61,0.00,,,0.01,Wunderground v.1.15,2013-04-20 07:09:00,
2013-04-20 03:14:00,46.8,33.6,29.83,WNW,287,4.0,15.0,60,0.00,,,0.01,Wunderground v.1.15,2013-04-20 07:14:00,
2013-04-20 03:19:00,46.6,33.9,29.83,NW,310,4.0,15.0,61,0.00,,,0.01,Wunderground v.1.15,2013-04-20 07:19:00,
2013-04-20 03:25:00,46.4,34.1,29.83,NW,313,4.0,15.0,62,0.00,,,0.01,Wunderground v.1.15,2013-04-20 07:25:00,
2013-04-20 03:31:00,46.1,33.8,29.84,WNW,285,4.0,10.0,62,0.00,,,0.01,Wunderground v.1.15,2013-04-20 07:31:00,
2013-04-20 03:36:00,46.1,33.8,29.84,WNW,301,4.0,15.0,62,0.00,,,0.01,Wunderground v.1.15,2013-04-20 07:36:00,
2013-04-20 03:41:00,46.0,33.3,29.85,NW,321,5.0,15.0,61,0.00,,,0.01,Wunderground v.1.15,2013-04-20 07:41:00,
2013-04-20 03:47:00,46.0,33.3,29.85,West,262,4.0,15.0,61,0.00,,,0.01,Wunderground v.1.15,2013-04-20 07:47:00,
2013-04-20 03:52:00,45.9,33.2,29.85,WNW,301,4.0,15.0,61,0.00,,,0.01,Wunderground v.1.15,2013-04-20 07:52:00,
2013-04-20 03:58:00,45.8,32.7,29.85,WNW,291,4.0,15.0,60,0.00,,,0.01,Wunderground v.1.15,2013-04-20 07:58:00,
2013-04-20 04:03:00,45.7,32.2,29.85,NW,308,4.0,15.0,59,0.00,,,0.01,Wunderground v.1.15,2013-04-20 08:03:00,
2013-04-20 04:09:00,45.7,32.2,29.85,NNW,332,5.0,15.0,59,0.00,,,0.01,Wunderground v.1.15,2013-04-20 08:09:00,
2013-04-20 04:14:00,45.6,31.7,29.85,NW,321,5.0,15.0,58,0.00,,,0.01,Wunderground v.1.15,2013-04-20 08:14:00,
2013-04-20 04:20:00,45.6,31.2,29.85,NNW,328,5.0,15.0,57,0.00,,,0.01,Wunderground v.1.15,2013-04-20 08:20:00,
2013-04-20 04:25:00,45.5,30.3,29.86,WNW,293,5.0,15.0,55,0.00,,,0.02,Wunderground v.1.15,2013-04-20 08:25:00,
2013-04-20 04:31:00,45.4,29.7,29.86,WNW,299,5.0,7.0,54,0.00,,,0.02,Wunderground v.1.15,2013-04-20 08:31:00,
2013-04-20 04:36:00,45.5,28.9,29.86,NW,319,6.0,15.0,52,0.00,,,0.02,Wunderground v.1.15,2013-04-20 08:36:00,
2013-04-20 04:42:00,45.4,27.8,29.86,WNW,285,7.0,19.0,50,0.00,,,0.02,Wunderground v.1.15,2013-04-20 08:42:00,
2013-04-20 04:47:00,45.4,26.8,29.86,WNW,293,10.0,19.0,48,0.00,,,0.02,Wunderground v.1.15,2013-04-20 08:47:00,
2013-04-20 04:53:00,45.2,27.2,29.87,NW,308,9.0,15.0,49,0.00,,,0.02,Wunderground v.1.15,2013-04-20 08:53:00,
2013-04-20 04:58:00,45.1,27.1,29.87,NW,312,8.0,15.0,49,0.00,,,0.02,Wunderground v.1.15,2013-04-20 08:58:00,
2013-04-20 05:04:00,44.9,27.4,29.87,West,265,9.0,15.0,50,0.00,,,0.02,Wunderground v.1.15,2013-04-20 09:04:00,
2013-04-20 05:09:00,44.8,27.3,29.87,NNW,340,8.0,15.0,50,0.00,,,0.02,Wunderground v.1.15,2013-04-20 09:09:00,
2013-04-20 05:15:00,44.6,27.1,29.88,West,276,6.0,15.0,50,0.00,,,0.02,Wunderground v.1.15,2013-04-20 09:15:00,
2013-04-20 05:20:00,44.4,26.9,29.88,West,262,6.0,15.0,50,0.00,,,0.02,Wunderground v.1.15,2013-04-20 09:20:00,
2013-04-20 05:25:00,44.3,26.3,29.88,West,272,5.0,15.0,49,0.00,,,0.02,Wunderground v.1.15,2013-04-20 09:25:00,
2013-04-20 05:31:00,44.1,26.6,29.89,WNW,283,4.0,15.0,50,0.00,,,0.02,Wunderground v.1.15,2013-04-20 09:31:00,
2013-04-20 05:37:00,43.8,26.3,29.89,WSW,257,5.0,15.0,50,0.00,,,0.02,Wunderground v.1.15,2013-04-20 09:37:00,
2013-04-20 05:43:00,43.6,26.2,29.90,WNW,287,4.0,15.0,50,0.00,,,0.02,Wunderground v.1.15,2013-04-20 09:43:00,
2013-04-20 05:49:00,43.4,26.5,29.90,WNW,285,3.0,15.0,51,0.00,,,0.02,Wunderground v.1.15,2013-04-20 09:49:00,
2013-04-20 05:54:00,43.2,26.3,29.90,West,276,3.0,15.0,51,0.00,,,0.02,Wunderground v.1.15,2013-04-20 09:54:00,
2013-04-20 06:00:00,43.0,26.1,29.90,NW,311,3.0,3.0,51,0.00,,,0.02,Wunderground v.1.15,2013-04-20 10:00:00,
2013-04-20 06:05:00,42.9,25.5,29.91,NNW,335,5.0,15.0,50,0.00,,,0.02,Wunderground v.1.15,2013-04-20 10:05:00,
2013-04-20 06:11:00,42.7,25.8,29.91,NW,326,5.0,15.0,51,0.00,,,0.02,Wunderground v.1.15,2013-04-20 10:11:00,
2013-04-20 06:16:00,42.5,25.1,29.92,WNW,295,4.0,15.0,50,0.00,,,0.02,Wunderground v.1.15,2013-04-20 10:16:00,
2013-04-20 06:22:00,42.4,25.5,29.92,WNW,295,4.0,15.0,51,0.00,,,0.02,Wunderground v.1.15,2013-04-20 10:22:00,
2013-04-20 06:27:00,42.1,25.3,29.93,WNW,283,4.0,15.0,51,0.00,,,0.02,Wunderground v.1.15,2013-04-20 10:27:00,
2013-04-20 06:33:00,41.9,25.5,29.93,WNW,291,4.0,15.0,52,0.00,,,0.02,Wunderground v.1.15,2013-04-20 10:33:00,
2013-04-20 06:39:00,41.5,25.2,29.93,West,279,3.0,15.0,52,0.00,,,0.02,Wunderground v.1.15,2013-04-20 10:39:00,
2013-04-20 06:44:00,41.3,25.4,29.93,West,265,3.0,15.0,53,0.00,,,0.02,Wunderground v.1.15,2013-04-20 10:44:00,
2013-04-20 06:49:00,41.2,25.3,29.94,NW,312,3.0,15.0,53,0.00,,,0.02,Wunderground v.1.15,2013-04-20 10:49:00,
2013-04-20 06:55:00,41.1,25.3,29.94,WNW,297,3.0,15.0,53,0.00,,,0.02,Wunderground v.1.15,2013-04-20 10:55:00,
2013-04-20 07:01:00,40.9,25.5,29.95,WNW,301,2.0,15.0,54,0.00,,,0.02,Wunderground v.1.15,2013-04-20 11:01:00,
2013-04-20 07:06:00,40.6,25.7,29.95,NW,322,2.0,15.0,55,0.00,,,0.02,Wunderground v.1.15,2013-04-20 11:06:00,
2013-04-20 07:12:00,40.4,25.5,29.95,NW,308,2.0,15.0,55,0.00,,,0.02,Wunderground v.1.15,2013-04-20 11:12:00,
2013-04-20 07:17:00,40.3,25.8,29.95,WNW,300,2.0,15.0,56,0.00,,,0.02,Wunderground v.1.15,2013-04-20 11:17:00,
2013-04-20 07:23:00,40.4,25.5,29.96,WNW,283,2.0,15.0,55,0.00,,,0.02,Wunderground v.1.15,2013-04-20 11:23:00,
2013-04-20 07:28:00,40.7,26.2,29.96,WNW,291,2.0,15.0,56,0.00,,,0.02,Wunderground v.1.15,2013-04-20 11:28:00,
2013-04-20 07:34:00,41.3,26.3,29.96,WNW,285,2.0,15.0,55,0.00,,,0.02,Wunderground v.1.15,2013-04-20 11:34:00,
2013-04-20 07:39:00,41.7,26.3,29.97,West,276,2.0,15.0,54,0.00,,,0.02,Wunderground v.1.15,2013-04-20 11:39:00,
2013-04-20 07:44:00,42.1,25.7,29.97,WNW,293,3.0,15.0,52,0.00,,,0.02,Wunderground v.1.15,2013-04-20 11:44:00,
2013-04-20 07:50:00,42.5,26.1,29.97,West,271,4.0,15.0,52,0.00,,,0.02,Wunderground v.1.15,2013-04-20 11:50:00,
2013-04-20 07:55:00,42.9,26.5,29.97,WNW,289,4.0,15.0,52,0.00,,,0.02,Wunderground v.1.15,2013-04-20 11:55:00,
2013-04-20 08:01:00,43.2,25.8,29.98,WNW,286,6.0,15.0,50,0.00,,,0.02,Wunderground v.1.15,2013-04-20 12:01:00,
2013-04-20 08:06:00,43.5,26.6,29.98,West,280,6.0,15.0,51,0.00,,,0.02,Wunderground v.1.15,2013-04-20 12:06:00,
2013-04-20 08:12:00,43.7,26.3,29.98,WNW,292,6.0,15.0,50,0.00,,,0.02,Wunderground v.1.15,2013-04-20 12:12:00,
2013-04-20 08:17:00,44.0,27.0,29.98,West,270,6.0,15.0,51,0.00,,,0.02,Wunderground v.1.15,2013-04-20 12:17:00,
2013-04-20 08:22:00,44.1,26.1,29.98,NW,307,6.0,15.0,49,0.00,,,0.03,Wunderground v.1.15,2013-04-20 12:22:00,
2013-04-20 08:28:00,44.0,27.0,29.99,West,280,7.0,15.0,51,0.00,,,0.03,Wunderground v.1.15,2013-04-20 12:28:00,
2013-04-20 08:33:00,44.1,26.6,29.99,West,264,7.0,15.0,50,0.00,,,0.03,Wunderground v.1.15,2013-04-20 12:33:00,
2013-04-20 08:39:00,44.3,26.3,29.99,NNW,337,8.0,15.0,49,0.00,,,0.03,Wunderground v.1.15,2013-04-20 12:39:00,
2013-04-20 08:44:00,44.4,27.4,29.99,WNW,293,7.0,15.0,51,0.00,,,0.03,Wunderground v.1.15,2013-04-20 12:44:00,
2013-04-20 08:49:00,44.4,26.4,29.99,WNW,293,7.0,15.0,49,0.00,,,0.03,Wunderground v.1.15,2013-04-20 12:49:00,
2013-04-20 08:55:00,44.7,27.2,30.00,NW,315,7.0,15.0,50,0.00,,,0.03,Wunderground v.1.15,2013-04-20 12:55:00,
2013-04-20 09:01:00,45.0,27.5,30.00,WNW,285,6.0,13.0,50,0.00,,,0.03,Wunderground v.1.15,2013-04-20 13:01:00,
2013-04-20 09:06:00,45.1,27.6,30.00,NW,319,7.0,15.0,50,0.00,,,0.03,Wunderground v.1.15,2013-04-20 13:06:00,
2013-04-20 09:11:00,45.6,28.0,30.00,WNW,286,6.0,15.0,50,0.00,,,0.03,Wunderground v.1.15,2013-04-20 13:11:00,
2013-04-20 09:17:00,45.9,27.8,30.00,NW,312,6.0,15.0,49,0.00,,,0.03,Wunderground v.1.15,2013-04-20 13:17:00,
2013-04-20 09:22:00,46.1,27.0,30.01,WNW,302,7.0,15.0,47,0.00,,,0.03,Wunderground v.1.15,2013-04-20 13:22:00,
2013-04-20 09:28:00,46.2,27.6,30.01,WNW,291,7.0,15.0,48,0.00,,,0.03,Wunderground v.1.15,2013-04-20 13:28:00,
2013-04-20 09:33:00,46.2,28.1,30.01,WNW,301,7.0,15.0,49,0.00,,,0.03,Wunderground v.1.15,2013-04-20 13:33:00,
2013-04-20 09:38:00,46.4,27.8,30.01,NNW,328,7.0,15.0,48,0.00,,,0.03,Wunderground v.1.15,2013-04-20 13:38:00,
2013-04-20 09:44:00,46.3,27.7,30.02,WNW,298,8.0,15.0,48,0.00,,,0.03,Wunderground v.1.15,2013-04-20 13:44:00,
2013-04-20 09:49:00,46.9,28.2,30.02,WNW,294,8.0,15.0,48,0.00,,,0.03,Wunderground v.1.15,2013-04-20 13:49:00,
2013-04-20 09:55:00,46.9,27.2,30.02,NW,317,8.0,15.0,46,0.00,,,0.03,Wunderground v.1.15,2013-04-20 13:55:00,
2013-04-20 10:00:00,46.9,27.2,30.02,West,278,8.0,8.0,46,0.00,,,0.03,Wunderground v.1.15,2013-04-20 14:00:00,
2013-04-20 10:05:00,47.0,27.8,30.02,West,274,7.0,15.0,47,0.00,,,0.03,Wunderground v.1.15,2013-04-20 14:05:00,
2013-04-20 10:11:00,47.5,27.7,30.03,NNW,345,7.0,15.0,46,0.00,,,0.03,Wunderground v.1.15,2013-04-20 14:11:00,
2013-04-20 10:16:00,47.7,26.3,30.03,West,272,8.0,15.0,43,0.00,,,0.03,Wunderground v.1.15,2013-04-20 14:16:00,
2013-04-20 10:22:00,47.6,27.3,30.03,NNW,343,9.0,15.0,45,0.00,,,0.03,Wunderground v.1.15,2013-04-20 14:22:00,
2013-04-20 10:27:00,47.9,28.1,30.03,West,275,8.0,15.0,46,0.00,,,0.03,Wunderground v.1.15,2013-04-20 14:27:00,
2013-04-20 10:32:00,48.2,28.9,30.03,WNW,302,8.0,15.0,47,0.00,,,0.03,Wunderground v.1.15,2013-04-20 14:32:00,
2013-04-20 10:38:00,48.5,27.6,30.03,West,266,8.0,15.0,44,0.00,,,0.03,Wunderground v.1.15,2013-04-20 14:38:00,
2013-04-20 10:43:00,49.1,28.7,30.04,NW,304,7.0,15.0,45,0.00,,,0.03,Wunderground v.1.15,2013-04-20 14:43:00,
2013-04-20 10:49:00,48.9,26.8,30.04,NNW,334,6.0,15.0,42,0.00,,,0.03,Wunderground v.1.15,2013-04-20 14:49:00,
2013-04-20 10:55:00,49.3,29.4,30.04,West,276,6.0,15.0,46,0.00,,,0.03,Wunderground v.1.15,2013-04-20 14:55:00,
2013-04-20 11:00:00,49.2,27.1,30.04,NNW,331,7.0,7.0,42,0.00,,,0.03,Wunderground v.1.15,2013-04-20 15:00:00,
2013-04-20 11:06:00,48.8,26.1,30.04,NNW,341,8.0,15.0,41,0.00,,,0.03,Wunderground v.1.15,2013-04-20 15:06:00,
2013-04-20 11:12:00,49.3,26.0,30.05,West,260,8.0,15.0,40,0.00,,,0.03,Wunderground v.1.15,2013-04-20 15:12:00,
2013-04-20 11:17:00,49.8,28.2,30.05,WNW,283,8.0,15.0,43,0.00,,,0.03,Wunderground v.1.15,2013-04-20 15:17:00,
2013-04-20 11:23:00,50.1,27.3,30.05,West,260,7.0,15.0,41,0.00,,,0.03,Wunderground v.1.15,2013-04-20 15:23:00,
2013-04-20 11:28:00,50.7,27.8,30.05,NW,315,6.0,15.0,41,0.00,,,0.03,Wunderground v.1.15,2013-04-20 15:28:00,
2013-04-20 11:34:00,50.9,27.4,30.05,WNW,287,5.0,15.0,40,0.00,,,0.03,Wunderground v.1.15,2013-04-20 15:34:00,
2013-04-20 11:39:00,50.9,27.4,30.05,WNW,298,6.0,15.0,40,0.00,,,0.04,Wunderground v.1.15,2013-04-20 15:39:00,
2013-04-20 11:44:00,50.6,25.9,30.05,West,278,7.0,15.0,38,0.00,,,0.04,Wunderground v.1.15,2013-04-20 15:44:00,
2013-04-20 11:50:00,51.4,28.5,30.05,WNW,300,7.0,7.0,41,0.00,,,0.04,Wunderground v.1.15,2013-04-20 15:50:00,
2013-04-20 11:55:00,51.6,28.6,30.05,NW,310,5.0,15.0,41,0.00,,,0.04,Wunderground v.1.15,2013-04-20 15:55:00,
2013-04-20 12:01:00,52.2,28.6,30.05,West,262,5.0,15.0,40,0.00,,,0.04,Wunderground v.1.15,2013-04-20 16:01:00,
2013-04-20 12:06:00,52.2,28.6,30.05,West,271,7.0,15.0,40,0.00,,,0.04,Wunderground v.1.15,2013-04-20 16:06:00,
2013-04-20 12:12:00,52.6,27.7,30.05,WSW,255,7.0,15.0,38,0.00,,,0.04,Wunderground v.1.15,2013-04-20 16:12:00,
2013-04-20 12:17:00,52.2,27.3,30.05,West,272,7.0,15.0,38,0.00,,,0.04,Wunderground v.1.15,2013-04-20 16:17:00,
2013-04-20 12:22:00,52.5,29.5,30.05,West,260,7.0,15.0,41,0.00,,,0.04,Wunderground v.1.15,2013-04-20 16:22:00,
2013-04-20 12:28:00,52.3,26.1,30.05,West,276,7.0,15.0,36,0.00,,,0.04,Wunderground v.1.15,2013-04-20 16:28:00,
2013-04-20 12:33:00,52.1,25.3,30.04,WSW,249,8.0,15.0,35,0.00,,,0.04,Wunderground v.1.15,2013-04-20 16:33:00,
2013-04-20 12:38:00,52.2,26.7,30.04,WSW,257,8.0,15.0,37,0.00,,,0.04,Wunderground v.1.15,2013-04-20 16:38:00,
2013-04-20 12:44:00,52.1,26.6,30.05,WNW,285,8.0,15.0,37,0.00,,,0.04,Wunderground v.1.15,2013-04-20 16:44:00,
2013-04-20 12:49:00,51.7,27.5,30.04,WNW,299,8.0,15.0,39,0.00,,,0.04,Wunderground v.1.15,2013-04-20 16:49:00,
2013-04-20 12:54:00,52.0,26.5,30.04,West,281,8.0,15.0,37,0.00,,,0.04,Wunderground v.1.15,2013-04-20 16:54:00,
2013-04-20 13:00:00,52.7,25.1,30.04,West,279,8.0,15.0,34,0.00,,,0.04,Wunderground v.1.15,2013-04-20 17:00:00,
2013-04-20 13:05:00,52.3,24.0,30.04,NW,316,9.0,15.0,33,0.00,,,0.04,Wunderground v.1.15,2013-04-20 17:05:00,
2013-04-20 13:11:00,53.1,26.8,30.04,West,260,8.0,15.0,36,0.00,,,0.04,Wunderground v.1.15,2013-04-20 17:11:00,
2013-04-20 13:17:00,53.6,27.9,30.04,North,4,6.0,15.0,37,0.00,,,0.04,Wunderground v.1.15,2013-04-20 17:17:00,
2013-04-20 13:22:00,53.2,26.2,30.03,NW,308,8.0,15.0,35,0.00,,,0.04,Wunderground v.1.15,2013-04-20 17:22:00,
2013-04-20 13:27:00,53.3,25.6,30.03,West,277,8.0,15.0,34,0.00,,,0.04,Wunderground v.1.15,2013-04-20 17:27:00,
2013-04-20 13:33:00,53.8,26.1,30.03,WSW,258,6.0,15.0,34,0.00,,,0.04,Wunderground v.1.15,2013-04-20 17:33:00,
2013-04-20 13:38:00,53.8,25.3,30.04,NNW,329,7.0,15.0,33,0.00,,,0.04,Wunderground v.1.15,2013-04-20 17:38:00,
2013-04-20 13:44:00,54.1,27.0,30.03,NW,316,7.0,15.0,35,0.00,,,0.04,Wunderground v.1.15,2013-04-20 17:44:00,
2013-04-20 13:49:00,54.6,25.3,30.03,NW,322,4.0,15.0,32,0.00,,,0.04,Wunderground v.1.15,2013-04-20 17:49:00,
2013-04-20 13:54:00,55.3,28.8,30.03,WSW,246,3.0,15.0,36,0.00,,,0.04,Wunderground v.1.15,2013-04-20 17:54:00,
2013-04-20 14:00:00,56.0,27.3,30.03,NW,319,4.0,15.0,33,0.00,,,0.04,Wunderground v.1.15,2013-04-20 18:00:00,
2013-04-20 14:05:00,55.2,25.8,30.03,WSW,246,5.0,15.0,32,0.00,,,0.04,Wunderground v.1.15,2013-04-20 18:05:00,
2013-04-20 14:11:00,54.9,24.0,30.03,West,262,8.0,15.0,30,0.00,,,0.04,Wunderground v.1.15,2013-04-20 18:11:00,
2013-04-20 14:16:00,54.8,25.5,30.03,WSW,243,8.0,15.0,32,0.00,,,0.04,Wunderground v.1.15,2013-04-20 18:16:00,
2013-04-20 14:22:00,55.5,27.6,30.04,NW,312,7.0,15.0,34,0.00,,,0.04,Wunderground v.1.15,2013-04-20 18:22:00,
2013-04-20 14:27:00,55.5,24.5,30.04,WNW,302,7.0,15.0,30,0.00,,,0.04,Wunderground v.1.15,2013-04-20 18:27:00,
2013-04-20 14:32:00,55.3,26.7,30.04,SW,227,7.0,15.0,33,0.00,,,0.04,Wunderground v.1.15,2013-04-20 18:32:00,
2013-04-20 14:38:00,55.6,25.4,30.04,NNW,335,6.0,15.0,31,0.00,,,0.04,Wunderground v.1.15,2013-04-20 18:38:00,
2013-04-20 14:43:00,55.9,28.6,30.04,WSW,249,6.0,15.0,35,0.00,,,0.04,Wunderground v.1.15,2013-04-20 18:43:00,
2013-04-20 14:48:00,56.6,26.3,30.03,WSW,241,6.0,15.0,31,0.00,,,0.04,Wunderground v.1.15,2013-04-20 18:48:00,
2013-04-20 14:54:00,56.5,27.0,30.03,West,266,6.0,15.0,32,0.00,,,0.04,Wunderground v.1.15,2013-04-20 18:54:00,
2013-04-20 14:59:00,56.8,24.8,30.03,WNW,283,6.0,15.0,29,0.00,,,0.04,Wunderground v.1.15,2013-04-20 18:59:00,
2013-04-20 15:05:00,56.8,26.5,30.03,West,273,5.0,15.0,31,0.00,,,0.04,Wunderground v.1.15,2013-04-20 19:05:00,
2013-04-20 15:10:00,56.4,26.1,30.03,NNE,33,5.0,5.0,31,0.00,,,0.04,Wunderground v.1.15,2013-04-20 19:10:00,
2013-04-20 15:15:00,57.1,28.2,30.04,WNW,287,5.0,15.0,33,0.00,,,0.04,Wunderground v.1.15,2013-04-20 19:15:00,
2013-04-20 15:21:00,57.5,25.5,30.04,West,278,5.0,15.0,29,0.00,,,0.04,Wunderground v.1.15,2013-04-20 19:21:00,
2013-04-20 15:26:00,58.0,24.2,30.03,West,272,4.0,15.0,27,0.00,,,0.04,Wunderground v.1.15,2013-04-20 19:26:00,
2013-04-20 15:32:00,57.7,25.6,30.04,WNW,283,6.0,15.0,29,0.00,,,0.04,Wunderground v.1.15,2013-04-20 19:32:00,
2013-04-20 15:37:00,58.0,25.9,30.04,West,266,7.0,15.0,29,0.00,,,0.04,Wunderground v.1.15,2013-04-20 19:37:00,
2013-04-20 15:43:00,58.1,26.0,30.04,WNW,285,6.0,15.0,29,0.00,,,0.04,Wunderground v.1.15,2013-04-20 19:43:00,
2013-04-20 15:48:00,57.7,23.9,30.04,SW,230,5.0,15.0,27,0.00,,,0.04,Wunderground v.1.15,2013-04-20 19:48:00,
2013-04-20 15:53:00,58.3,26.1,30.04,West,262,4.0,15.0,29,0.00,,,0.04,Wunderground v.1.15,2013-04-20 19:53:00,
2013-04-20 15:59:00,58.2,25.2,30.04,WNW,285,5.0,15.0,28,0.00,,,0.04,Wunderground v.1.15,2013-04-20 19:59:00,
2013-04-20 16:04:00,58.2,24.3,30.04,WNW,299,8.0,15.0,27,0.00,,,0.04,Wunderground v.1.15,2013-04-20 20:04:00,
2013-04-20 16:10:00,57.9,24.1,30.04,NNW,336,8.0,15.0,27,0.00,,,0.04,Wunderground v.1.15,2013-04-20 20:10:00,
2013-04-20 16:16:00,57.7,26.4,30.04,NNW,339,7.0,15.0,30,0.00,,,0.04,Wunderground v.1.15,2013-04-20 20:16:00,
2013-04-20 16:21:00,57.9,27.4,30.04,WNW,293,7.0,8.0,31,0.00,,,0.04,Wunderground v.1.15,2013-04-20 20:21:00,
2013-04-20 16:27:00,58.4,25.4,30.04,West,280,6.0,15.0,28,0.00,,,0.04,Wunderground v.1.15,2013-04-20 20:27:00,
2013-04-20 16:33:00,58.8,24.9,30.04,NNW,332,5.0,15.0,27,0.00,,,0.04,Wunderground v.1.15,2013-04-20 20:33:00,
2013-04-20 16:38:00,58.6,25.6,30.04,North,4,5.0,15.0,28,0.00,,,0.04,Wunderground v.1.15,2013-04-20 20:38:00,
2013-04-20 16:44:00,58.5,26.3,30.04,North,354,6.0,15.0,29,0.00,,,0.04,Wunderground v.1.15,2013-04-20 20:44:00,
2013-04-20 16:49:00,58.2,24.3,30.04,NW,318,8.0,15.0,27,0.00,,,0.04,Wunderground v.1.15,2013-04-20 20:49:00,
2013-04-20 16:55:00,58.0,24.2,30.05,NW,317,8.0,15.0,27,0.00,,,0.04,Wunderground v.1.15,2013-04-20 20:55:00,
2013-04-20 17:00:00,58.1,24.3,30.05,NW,324,7.0,15.0,27,0.00,,,0.04,Wunderground v.1.15,2013-04-20 21:00:00,
2013-04-20 17:06:00,58.1,26.8,30.05,WNW,303,8.0,15.0,30,0.00,,,0.04,Wunderground v.1.15,2013-04-20 21:06:00,
2013-04-20 17:11:00,58.2,26.9,30.05,NNW,334,7.0,15.0,30,0.00,,,0.04,Wunderground v.1.15,2013-04-20 21:11:00,
2013-04-20 17:16:00,58.3,26.1,30.06,NW,305,7.0,15.0,29,0.00,,,0.04,Wunderground v.1.15,2013-04-20 21:16:00,
2013-04-20 17:22:00,58.4,25.4,30.06,NW,308,7.0,15.0,28,0.00,,,0.04,Wunderground v.1.15,2013-04-20 21:22:00,
2013-04-20 17:27:00,58.2,25.2,30.06,NW,324,8.0,15.0,28,0.00,,,0.04,Wunderground v.1.15,2013-04-20 21:27:00,
2013-04-20 17:33:00,58.3,24.4,30.07,NW,310,6.0,15.0,27,0.00,,,0.04,Wunderground v.1.15,2013-04-20 21:33:00,
2013-04-20 17:39:00,58.3,25.3,30.07,NNW,330,6.0,15.0,28,0.00,,,0.04,Wunderground v.1.15,2013-04-20 21:39:00,
2013-04-20 17:45:00,58.4,27.1,30.07,NNW,347,6.0,15.0,30,0.00,,,0.04,Wunderground v.1.15,2013-04-20 21:45:00,
2013-04-20 17:50:00,58.4,25.4,30.07,WNW,301,7.0,7.0,28,0.00,,,0.04,Wunderground v.1.15,2013-04-20 21:50:00,
2013-04-20 17:56:00,58.8,26.6,30.08,West,279,5.0,15.0,29,0.00,,,0.04,Wunderground v.1.15,2013-04-20 21:56:00,
2013-04-20 18:01:00,58.8,23.9,30.08,West,266,5.0,15.0,26,0.00,,,0.04,Wunderground v.1.15,2013-04-20 22:01:00,
2013-04-20 18:07:00,58.8,25.7,30.08,NW,318,5.0,15.0,28,0.00,,,0.04,Wunderground v.1.15,2013-04-20 22:07:00,
2013-04-20 18:12:00,58.8,26.6,30.08,NNW,334,5.0,15.0,29,0.00,,,0.04,Wunderground v.1.15,2013-04-20 22:12:00,
2013-04-20 18:18:00,58.8,24.9,30.08,WNW,287,5.0,15.0,27,0.00,,,0.04,Wunderground v.1.15,2013-04-20 22:18:00,
2013-04-20 18:23:00,58.5,24.6,30.09,North,354,5.0,15.0,27,0.00,,,0.04,Wunderground v.1.15,2013-04-20 22:23:00,
2013-04-20 18:29:00,58.2,24.3,30.09,WNW,291,5.0,15.0,27,0.00,,,0.04,Wunderground v.1.15,2013-04-20 22:29:00,
2013-04-20 18:34:00,58.0,24.2,30.09,NNW,328,6.0,15.0,27,0.00,,,0.04,Wunderground v.1.15,2013-04-20 22:34:00,
2013-04-20 18:39:00,57.8,23.1,30.09,NNW,331,6.0,15.0,26,0.00,,,0.04,Wunderground v.1.15,2013-04-20 22:39:00,
2013-04-20 18:45:00,57.8,24.0,30.09,NW,307,5.0,15.0,27,0.00,,,0.04,Wunderground v.1.15,2013-04-20 22:45:00,
2013-04-20 18:50:00,57.8,24.9,30.10,NNW,345,5.0,5.0,28,0.00,,,0.04,Wunderground v.1.15,2013-04-20 22:50:00,
2013-04-20 18:56:00,57.7,23.9,30.10,NNW,330,5.0,15.0,27,0.00,,,0.04,Wunderground v.1.15,2013-04-20 22:56:00,
2013-04-20 19:01:00,57.4,24.5,30.10,WNW,292,5.0,15.0,28,0.00,,,0.04,Wunderground v.1.15,2013-04-20 23:01:00,
2013-04-20 19:07:00,57.1,25.1,30.10,NNW,330,5.0,15.0,29,0.00,,,0.04,Wunderground v.1.15,2013-04-20 23:07:00,
2013-04-20 19:12:00,57.1,25.1,30.11,NNW,332,4.0,15.0,29,0.00,,,0.04,Wunderground v.1.15,2013-04-20 23:12:00,
2013-04-20 19:18:00,56.7,24.8,30.11,NW,310,3.0,15.0,29,0.00,,,0.04,Wunderground v.1.15,2013-04-20 23:18:00,
2013-04-20 19:23:00,56.4,23.7,30.11,NNW,333,4.0,15.0,28,0.00,,,0.04,Wunderground v.1.15,2013-04-20 23:23:00,
2013-04-20 19:29:00,56.2,25.1,30.11,NNW,332,3.0,15.0,30,0.00,,,0.04,Wunderground v.1.15,2013-04-20 23:29:00,
2013-04-20 19:35:00,55.8,24.8,30.12,NW,324,3.0,15.0,30,0.00,,,0.04,Wunderground v.1.15,2013-04-20 23:35:00,
2013-04-20 19:40:00,55.3,25.1,30.12,NW,320,4.0,4.0,31,0.00,,,0.04,Wunderground v.1.15,2013-04-20 23:40:00,
2013-04-20 19:46:00,54.7,25.4,30.12,NW,310,3.0,15.0,32,0.00,,,0.04,Wunderground v.1.15,2013-04-20 23:46:00,
2013-04-20 19:51:00,54.3,25.0,30.13,NNW,339,3.0,15.0,32,0.00,,,0.04,Wunderground v.1.15,2013-04-20 23:51:00,
2013-04-20 19:57:00,53.8,26.1,30.13,NNW,331,2.0,15.0,34,0.00,,,0.04,Wunderground v.1.15,2013-04-20 23:57:00,
2013-04-20 20:02:00,53.4,25.7,30.14,NNW,337,2.0,15.0,34,0.00,,,0.04,Wunderground v.1.15,2013-04-21 00:02:00,
2013-04-20 20:08:00,53.1,26.1,30.14,NNW,337,1.0,15.0,35,0.00,,,0.04,Wunderground v.1.15,2013-04-21 00:08:00,
2013-04-20 20:13:00,52.7,27.1,30.15,NNW,337,1.0,15.0,37,0.00,,,0.04,Wunderground v.1.15,2013-04-21 00:13:00,
2013-04-20 20:19:00,52.0,27.1,30.16,NNW,337,1.0,15.0,38,0.00,,,0.04,Wunderground v.1.15,2013-04-21 00:19:00,
2013-04-20 20:24:00,51.5,27.3,30.16,NNW,337,0.0,15.0,39,0.00,,,0.04,Wunderground v.1.15,2013-04-21 00:24:00,
2013-04-20 20:30:00,51.1,27.6,30.17,NNW,337,0.0,15.0,40,0.00,,,0.04,Wunderground v.1.15,2013-04-21 00:30:00,
2013-04-20 20:35:00,50.7,27.8,30.17,NNW,337,0.0,15.0,41,0.00,,,0.04,Wunderground v.1.15,2013-04-21 00:35:00,
2013-04-20 20:41:00,50.3,28.1,30.18,NNW,337,0.0,15.0,42,0.00,,,0.04,Wunderground v.1.15,2013-04-21 00:41:00,
2013-04-20 20:46:00,50.0,27.2,30.18,NNW,337,0.0,15.0,41,0.00,,,0.04,Wunderground v.1.15,2013-04-21 00:46:00,
2013-04-20 20:51:00,49.8,27.0,30.18,NNW,337,1.0,15.0,41,0.00,,,0.04,Wunderground v.1.15,2013-04-21 00:51:00,
2013-04-20 20:57:00,49.6,27.4,30.19,NNW,337,0.0,15.0,42,0.00,,,0.04,Wunderground v.1.15,2013-04-21 00:57:00,
2013-04-20 21:02:00,49.4,27.8,30.19,NNW,337,0.0,15.0,43,0.00,,,0.04,Wunderground v.1.15,2013-04-21 01:02:00,
2013-04-20 21:08:00,49.1,27.5,30.20,NNW,337,0.0,15.0,43,0.00,,,0.04,Wunderground v.1.15,2013-04-21 01:08:00,
2013-04-20 21:13:00,48.8,27.8,30.20,NNW,337,0.0,15.0,44,0.00,,,0.04,Wunderground v.1.15,2013-04-21 01:13:00,
2013-04-20 21:19:00,48.4,26.9,30.21,NNW,337,0.0,15.0,43,0.00,,,0.04,Wunderground v.1.15,2013-04-21 01:19:00,
2013-04-20 21:25:00,48.0,27.6,30.21,NNW,337,0.0,15.0,45,0.00,,,0.04,Wunderground v.1.15,2013-04-21 01:25:00,
2013-04-20 21:30:00,47.8,27.5,30.22,NNW,337,0.0,15.0,45,0.00,,,0.04,Wunderground v.1.15,2013-04-21 01:30:00,
2013-04-20 21:35:00,47.7,27.4,30.22,NNW,337,0.0,15.0,45,0.00,,,0.04,Wunderground v.1.15,2013-04-21 01:35:00,
2013-04-20 21:41:00,47.5,27.2,30.23,NNW,337,0.0,15.0,45,0.00,,,0.04,Wunderground v.1.15,2013-04-21 01:41:00,
2013-04-20 21:46:00,47.2,27.5,30.23,NNW,337,0.0,15.0,46,0.00,,,0.04,Wunderground v.1.15,2013-04-21 01:46:00,
2013-04-20 21:52:00,46.8,27.6,30.24,NNW,337,0.0,15.0,47,0.00,,,0.04,Wunderground v.1.15,2013-04-21 01:52:00,
2013-04-20 21:58:00,46.6,27.9,30.24,NNW,337,0.0,15.0,48,0.00,,,0.04,Wunderground v.1.15,2013-04-21 01:58:00,
2013-04-20 22:04:00,46.4,28.3,30.24,NNW,337,0.0,15.0,49,0.00,,,0.04,Wunderground v.1.15,2013-04-21 02:04:00,
2013-04-20 22:09:00,46.1,29.0,30.25,NNW,337,0.0,15.0,51,0.00,,,0.04,Wunderground v.1.15,2013-04-21 02:09:00,
2013-04-20 22:15:00,45.7,29.1,30.25,NNW,337,0.0,15.0,52,0.00,,,0.04,Wunderground v.1.15,2013-04-21 02:15:00,
2013-04-20 22:20:00,45.4,30.2,30.25,NNW,337,0.0,15.0,55,0.00,,,0.04,Wunderground v.1.15,2013-04-21 02:20:00,
2013-04-20 22:26:00,45.1,29.9,30.25,NNW,337,0.0,15.0,55,0.00,,,0.04,Wunderground v.1.15,2013-04-21 02:26:00,
2013-04-20 22:31:00,44.8,30.0,30.25,NNW,337,0.0,15.0,56,0.00,,,0.04,Wunderground v.1.15,2013-04-21 02:31:00,
2013-04-20 22:37:00,44.5,29.8,30.25,NNW,337,0.0,15.0,56,0.00,,,0.04,Wunderground v.1.15,2013-04-21 02:37:00,
2013-04-20 22:42:00,44.2,29.9,30.26,NNW,337,0.0,15.0,57,0.00,,,0.04,Wunderground v.1.15,2013-04-21 02:42:00,
2013-04-20 22:47:00,43.7,29.5,30.26,NNW,337,0.0,15.0,57,0.00,,,0.04,Wunderground v.1.15,2013-04-21 02:47:00,
2013-04-20 22:53:00,43.4,29.2,30.26,NNW,337,0.0,15.0,57,0.00,,,0.04,Wunderground v.1.15,2013-04-21 02:53:00,
2013-04-20 22:58:00,43.2,29.4,30.26,NNW,337,0.0,15.0,58,0.00,,,0.04,Wunderground v.1.15,2013-04-21 02:58:00,
2013-04-20 23:04:00,43.0,29.2,30.26,NNW,337,0.0,15.0,58,0.00,,,0.04,Wunderground v.1.15,2013-04-21 03:04:00,
2013-04-20 23:09:00,42.7,28.9,30.26,NNW,337,0.0,15.0,58,0.00,,,0.04,Wunderground v.1.15,2013-04-21 03:09:00,
2013-04-20 23:14:00,42.5,30.4,30.26,NNW,337,0.0,15.0,62,0.00,,,0.04,Wunderground v.1.15,2013-04-21 03:14:00,
2013-04-20 23:20:00,42.6,31.7,30.27,NNE,33,1.0,15.0,65,0.00,,,0.04,Wunderground v.1.15,2013-04-21 03:20:00,
2013-04-20 23:26:00,42.6,32.0,30.27,NNE,33,1.0,15.0,66,0.00,,,0.04,Wunderground v.1.15,2013-04-21 03:26:00,
2013-04-20 23:31:00,42.6,31.7,30.27,NNE,33,0.0,15.0,65,0.00,,,0.04,Wunderground v.1.15,2013-04-21 03:31:00,
2013-04-20 23:37:00,42.4,31.5,30.27,NNE,21,1.0,15.0,65,0.00,,,0.04,Wunderground v.1.15,2013-04-21 03:37:00,
2013-04-20 23:43:00,42.2,31.3,30.27,NNE,21,1.0,15.0,65,0.00,,,0.04,Wunderground v.1.15,2013-04-21 03:43:00,
2013-04-20 23:49:00,42.2,31.6,30.27,NNE,21,1.0,15.0,66,0.00,,,0.04,Wunderground v.1.15,2013-04-21 03:49:00,
2013-04-20 23:55:00,41.9,31.4,30.28,NNE,21,0.0,15.0,66,0.00,,,0.04,Wunderground v.1.15,2013-04-21 03:55:00,